This demonstration page uses our WeatherBlox Daily Observations layout. Learn more.

Left ArrowRight Arrow

47.50024, -111.30081

Hourly Observations for April 15, 2019

Temp ( °F °C ) Dew Point ( °F °C ) Humidity (%) Winds ( mph kmh ) Pressure ( in mb ) Visibility ( mi km ) Precip ( " mm )
12:53 am 00:53 Cloudy 35 1.7 22 -5.6 59 59 SW 10 17 29.68 1005 10 16 0.00 0.00
1:53 am 01:53 Cloudy 36 2.2 22 -5.6 57 57 SW 10 17 29.70 1006 10 16 0.00 0.00
2:53 am 02:53 Cloudy 34 1.1 23 -5 64 64 SW 10 17 29.71 1006 10 16 0.00 0.00
3:53 am 03:53 Mostly Cloudy 33 0.6 23 -5 66 66 SW 12 19 29.72 1006 10 16 0.00 0.00
4:53 am 04:53 Mostly Cloudy 32 0 23 -5 69 69 SW 13 20 29.74 1007 10 16 0.00 0.00
5:53 am 05:53 Partly Cloudy 31 -0.6 23 -5 72 72 SW 12 19 29.77 1008 10 16 0.00 0.00
6:53 am 06:53 Cloudy 32 0 24 -4.4 73 73 SSW 13 20 29.78 1009 10 16 0.00 0.00
7:53 am 07:53 Partly Cloudy 34 1.1 23 -5 64 64 SW 13 20 29.80 1009 10 16 0.00 0.00
8:53 am 08:53 Sunny 40 4.4 23 -5 51 51 SW 17 28 29.79 1009 10 16 0.00 0.00
9:53 am 09:53 Sunny 43 6.1 20 -6.7 40 40 WSW 20 31 29.79 1009 10 16 0.00 0.00
10:53 am 10:53 Mostly Cloudy 45 7.2 20 -6.7 37 37 WSW 18 30 29.79 1009 10 16 0.00 0.00
11:53 am 11:53 Partly Cloudy 48 8.9 20 -6.7 33 33 SW 17 28 29.79 1009 10 16 0.00 0.00
12:53 pm 12:53 Mostly Cloudy 50 10 19 -7.2 29 29 WSW 18 30 29.77 1008 10 16 0.00 0.00
1:53 pm 13:53 Mostly Sunny 51 10.6 17 -8.3 26 26 SW 22 35 29.75 1007 10 16 0.00 0.00
2:53 pm 14:53 Mostly Cloudy 51 10.6 16 -8.9 25 25 WSW 20 31 29.75 1007 10 16 0.00 0.00
3:53 pm 15:53 Mostly Sunny 51 10.6 17 -8.3 26 26 WSW 18 30 29.75 1007 10 16 0.00 0.00
4:53 pm 16:53 Sunny 52 11.1 17 -8.3 25 25 WSW 23 37 29.75 1008 10 16 0.00 0.00
5:53 pm 17:53 Sunny 50 10 15 -9.4 25 25 WSW 23 37 29.76 1008 10 16 0.00 0.00
6:53 pm 18:53 Sunny 49 9.4 15 -9.4 26 26 W 18 30 29.77 1008 10 16 0.00 0.00
7:53 pm 19:53 Sunny 44 6.7 18 -7.8 35 35 WNW 10 17 29.79 1009 10 16 0.00 0.00
8:53 pm 20:53 Clear 38 3.3 18 -7.8 44 44 WNW 6 9 29.80 1009 10 16 0.00 0.00
9:53 pm 21:53 Clear 37 2.8 18 -7.8 46 46 NNE 5 7 29.82 1010 10 16 0.00 0.00
10:53 pm 22:53 Clear 35 1.7 19 -7.2 52 52 NNE 6 9 29.83 1010 10 16 0.00 0.00
11:53 pm 23:53 Clear 33 0.6 20 -6.7 58 58 E 5 7 29.82 1010 10 16 0.00 0.00

Powered by AerisWeather